Year,Month,Day,Hour,Minute,Value (Times are PST for temperature in C)
2008,07,08,00,00,15.00
2008,07,08,00,01,15.00
2008,07,08,00,02,15.00
2008,07,08,00,03,15.00
2008,07,08,00,04,15.00
2008,07,08,00,05,15.00
2008,07,08,00,06,15.10
2008,07,08,00,07,15.20
2008,07,08,00,08,15.20
2008,07,08,00,09,15.30
2008,07,08,00,10,15.30
2008,07,08,00,11,15.50
2008,07,08,00,12,15.60
2008,07,08,00,13,15.80
2008,07,08,00,14,15.90
2008,07,08,00,15,16.00
2008,07,08,00,16,16.00
2008,07,08,00,17,16.10
2008,07,08,00,18,16.10
2008,07,08,00,19,16.20
2008,07,08,00,20,16.30
2008,07,08,00,21,16.40
2008,07,08,00,22,16.40
2008,07,08,00,23,16.50
2008,07,08,00,24,16.60
2008,07,08,00,25,16.60
2008,07,08,00,26,16.60
2008,07,08,00,27,16.50
2008,07,08,00,28,16.40
2008,07,08,00,29,16.40
2008,07,08,00,30,16.30
2008,07,08,00,31,16.20
2008,07,08,00,32,16.20
2008,07,08,00,33,16.20
2008,07,08,00,34,16.30
2008,07,08,00,35,16.30
2008,07,08,00,36,16.30
2008,07,08,00,37,16.30
2008,07,08,00,38,16.20
2008,07,08,00,39,16.10
2008,07,08,00,40,15.80
2008,07,08,00,41,15.70
2008,07,08,00,42,15.50
2008,07,08,00,43,15.30
2008,07,08,00,44,15.00
2008,07,08,00,45,15.00
2008,07,08,00,46,14.80
2008,07,08,00,47,14.60
2008,07,08,00,48,14.50
2008,07,08,00,49,14.30
2008,07,08,00,50,14.20
2008,07,08,00,51,14.10
2008,07,08,00,52,14.10
2008,07,08,00,53,14.00
2008,07,08,00,54,14.10
2008,07,08,00,55,14.20
2008,07,08,00,56,14.30
2008,07,08,00,57,14.30
2008,07,08,00,58,14.20
2008,07,08,00,59,14.20
2008,07,08,01,00,14.20
2008,07,08,01,01,14.20
2008,07,08,01,02,14.20
2008,07,08,01,03,14.20
2008,07,08,01,04,14.20
2008,07,08,01,05,14.20
2008,07,08,01,06,14.20
2008,07,08,01,07,14.30
2008,07,08,01,08,14.30
2008,07,08,01,09,14.30
2008,07,08,01,10,14.30
2008,07,08,01,11,14.20
2008,07,08,01,12,14.20
2008,07,08,01,13,14.20
2008,07,08,01,14,14.10
2008,07,08,01,15,14.10
2008,07,08,01,16,14.10
2008,07,08,01,17,14.10
2008,07,08,01,18,14.10
2008,07,08,01,19,14.10
2008,07,08,01,20,14.10
2008,07,08,01,21,14.10
2008,07,08,01,22,14.20
2008,07,08,01,23,14.20
2008,07,08,01,24,14.30
2008,07,08,01,25,14.40
2008,07,08,01,26,14.40
2008,07,08,01,27,14.50
2008,07,08,01,28,14.50
2008,07,08,01,29,14.50
2008,07,08,01,30,14.50
2008,07,08,01,31,14.50
2008,07,08,01,32,14.60
2008,07,08,01,33,14.60
2008,07,08,01,34,14.70
2008,07,08,01,35,14.70
2008,07,08,01,36,14.90
2008,07,08,01,37,15.00
2008,07,08,01,38,15.00
2008,07,08,01,39,15.00
2008,07,08,01,40,15.00
2008,07,08,01,41,15.00
2008,07,08,01,42,15.00
2008,07,08,01,43,14.80
2008,07,08,01,44,14.70
2008,07,08,01,45,14.60
2008,07,08,01,46,14.50
2008,07,08,01,47,14.40
2008,07,08,01,48,14.20
2008,07,08,01,49,14.10
2008,07,08,01,50,14.00
2008,07,08,01,51,13.90
2008,07,08,01,52,13.90
2008,07,08,01,53,13.90
2008,07,08,01,54,13.90
2008,07,08,01,55,13.80
2008,07,08,01,56,13.80
2008,07,08,01,57,13.70
2008,07,08,01,58,13.70
2008,07,08,01,59,13.70
2008,07,08,02,00,13.70
2008,07,08,02,01,13.70
2008,07,08,02,02,13.70
2008,07,08,02,03,13.70
2008,07,08,02,04,13.80
2008,07,08,02,05,13.80
2008,07,08,02,06,13.80
2008,07,08,02,07,13.80
2008,07,08,02,08,13.80
2008,07,08,02,09,13.90
2008,07,08,02,10,13.90
2008,07,08,02,11,13.90
2008,07,08,02,12,13.90
2008,07,08,02,13,13.90
2008,07,08,02,14,14.00
2008,07,08,02,15,14.00
2008,07,08,02,16,14.10
2008,07,08,02,17,14.10
2008,07,08,02,18,14.10
2008,07,08,02,19,14.20
2008,07,08,02,20,14.20
2008,07,08,02,21,14.30
2008,07,08,02,22,14.30
2008,07,08,02,23,14.40
2008,07,08,02,24,14.50
2008,07,08,02,25,14.50
2008,07,08,02,26,14.60
2008,07,08,02,27,14.70
2008,07,08,02,28,14.70
2008,07,08,02,29,14.80
2008,07,08,02,30,14.80
2008,07,08,02,31,14.80
2008,07,08,02,32,14.80
2008,07,08,02,33,14.90
2008,07,08,02,34,14.90
2008,07,08,02,35,14.80
2008,07,08,02,36,14.80
2008,07,08,02,37,14.70
2008,07,08,02,38,14.60
2008,07,08,02,39,14.50
2008,07,08,02,40,14.40
2008,07,08,02,41,14.40
2008,07,08,02,42,14.30
2008,07,08,02,43,14.20
2008,07,08,02,44,14.20
2008,07,08,02,45,14.20
2008,07,08,02,46,14.10
2008,07,08,02,47,14.10
2008,07,08,02,48,14.00
2008,07,08,02,49,14.00
2008,07,08,02,50,13.90
2008,07,08,02,51,13.80
2008,07,08,02,52,13.80
2008,07,08,02,53,13.70
2008,07,08,02,54,13.60
2008,07,08,02,55,13.60
2008,07,08,02,56,13.50
2008,07,08,02,57,13.40
2008,07,08,02,58,13.40
2008,07,08,02,59,13.30
2008,07,08,03,00,13.30
2008,07,08,03,01,13.20
2008,07,08,03,02,13.20
2008,07,08,03,03,13.20
2008,07,08,03,04,13.20
2008,07,08,03,05,13.20
2008,07,08,03,06,13.20
2008,07,08,03,07,13.20
2008,07,08,03,08,13.20
2008,07,08,03,09,13.20
2008,07,08,03,10,13.20
2008,07,08,03,11,13.20
2008,07,08,03,12,13.20
2008,07,08,03,13,13.20
2008,07,08,03,14,13.20
2008,07,08,03,15,13.20
2008,07,08,03,16,13.30
2008,07,08,03,17,13.30
2008,07,08,03,18,13.40
2008,07,08,03,19,13.40
2008,07,08,03,20,13.40
2008,07,08,03,21,13.40
2008,07,08,03,22,13.40
2008,07,08,03,23,13.40
2008,07,08,03,24,13.40
2008,07,08,03,25,13.40
2008,07,08,03,26,13.40
2008,07,08,03,27,13.40
2008,07,08,03,28,13.40
2008,07,08,03,29,13.50
2008,07,08,03,30,13.50
2008,07,08,03,31,13.50
2008,07,08,03,32,13.50
2008,07,08,03,33,13.60
2008,07,08,03,34,13.60
2008,07,08,03,35,13.60
2008,07,08,03,36,13.60
2008,07,08,03,37,13.60
2008,07,08,03,38,13.60
2008,07,08,03,39,13.70
2008,07,08,03,40,13.70
2008,07,08,03,41,13.70
2008,07,08,03,42,13.70
2008,07,08,03,43,13.70
2008,07,08,03,44,13.70
2008,07,08,03,45,13.70
2008,07,08,03,46,13.80
2008,07,08,03,47,13.80
2008,07,08,03,48,13.80
2008,07,08,03,49,13.80
2008,07,08,03,50,13.80
2008,07,08,03,51,13.80
2008,07,08,03,52,13.80
2008,07,08,03,53,13.80
2008,07,08,03,54,13.80
2008,07,08,03,55,13.80
2008,07,08,03,56,13.80
2008,07,08,03,57,13.80
2008,07,08,03,58,13.90
2008,07,08,03,59,13.90
2008,07,08,04,00,13.90
2008,07,08,04,01,13.90
2008,07,08,04,02,13.90
2008,07,08,04,03,13.90
2008,07,08,04,04,13.90
2008,07,08,04,05,13.90
2008,07,08,04,06,13.90
2008,07,08,04,07,13.90
2008,07,08,04,08,13.90
2008,07,08,04,09,13.90
2008,07,08,04,10,13.90
2008,07,08,04,11,13.90
2008,07,08,04,12,13.90
2008,07,08,04,13,14.00
2008,07,08,04,14,14.00
2008,07,08,04,15,14.00
2008,07,08,04,16,13.90
2008,07,08,04,17,13.90
2008,07,08,04,18,13.90
2008,07,08,04,19,13.90
2008,07,08,04,20,13.90
2008,07,08,04,21,13.90
2008,07,08,04,22,13.90
2008,07,08,04,23,13.90
2008,07,08,04,24,13.90
2008,07,08,04,25,13.90
2008,07,08,04,26,13.90
2008,07,08,04,27,13.90
2008,07,08,04,28,13.90
2008,07,08,04,29,13.90
2008,07,08,04,30,13.90
2008,07,08,04,31,13.90
2008,07,08,04,32,13.90
2008,07,08,04,33,14.00
2008,07,08,04,34,14.00
2008,07,08,04,35,14.00
2008,07,08,04,36,14.00
2008,07,08,04,37,13.90
2008,07,08,04,38,14.00
2008,07,08,04,39,14.00
2008,07,08,04,40,13.90
2008,07,08,04,41,13.90
2008,07,08,04,42,13.90
2008,07,08,04,43,13.90
2008,07,08,04,44,13.80
2008,07,08,04,45,13.80
2008,07,08,04,46,13.80
2008,07,08,04,47,13.80
2008,07,08,04,48,13.80
2008,07,08,04,49,13.80
2008,07,08,04,50,13.80
2008,07,08,04,51,13.80
2008,07,08,04,52,13.80
2008,07,08,04,53,13.80
2008,07,08,04,54,13.80
2008,07,08,04,55,13.80
2008,07,08,04,56,13.80
2008,07,08,04,57,13.80
2008,07,08,04,58,13.80
2008,07,08,04,59,13.80
2008,07,08,05,00,13.80
2008,07,08,05,01,13.80
2008,07,08,05,02,13.90
2008,07,08,05,03,13.90
2008,07,08,05,04,13.90
2008,07,08,05,05,13.90
2008,07,08,05,06,13.90
2008,07,08,05,07,13.90
2008,07,08,05,08,13.90
2008,07,08,05,09,13.90
2008,07,08,05,10,13.90
2008,07,08,05,11,13.90
2008,07,08,05,12,13.90
2008,07,08,05,13,14.00
2008,07,08,05,14,14.00
2008,07,08,05,15,14.00
2008,07,08,05,16,13.90
2008,07,08,05,17,13.90
2008,07,08,05,18,13.90
2008,07,08,05,19,13.90
2008,07,08,05,20,13.90
2008,07,08,05,21,14.00
2008,07,08,05,22,14.00
2008,07,08,05,23,14.00
2008,07,08,05,24,13.90
2008,07,08,05,25,13.90
2008,07,08,05,26,13.80
2008,07,08,05,27,13.80
2008,07,08,05,28,13.80
2008,07,08,05,29,13.80
2008,07,08,05,30,13.80
2008,07,08,05,31,13.80
2008,07,08,05,32,13.80
2008,07,08,05,33,13.70
2008,07,08,05,34,13.70
2008,07,08,05,35,13.70
2008,07,08,05,36,13.70
2008,07,08,05,37,13.70
2008,07,08,05,38,13.70
2008,07,08,05,39,13.70
2008,07,08,05,40,13.70
2008,07,08,05,41,13.70
2008,07,08,05,42,13.70
2008,07,08,05,43,13.80
2008,07,08,05,44,13.70
2008,07,08,05,45,13.70
2008,07,08,05,46,13.70
2008,07,08,05,47,13.70
2008,07,08,05,48,13.70
2008,07,08,05,49,13.70
2008,07,08,05,50,13.70
2008,07,08,05,51,13.70
2008,07,08,05,52,13.70
2008,07,08,05,53,13.70
2008,07,08,05,54,13.70
2008,07,08,05,55,13.70
2008,07,08,05,56,13.70
2008,07,08,05,57,13.70
2008,07,08,05,58,13.70
2008,07,08,05,59,13.70
2008,07,08,06,00,13.80
2008,07,08,06,01,13.80
2008,07,08,06,02,13.80
2008,07,08,06,03,13.80
2008,07,08,06,04,13.80
2008,07,08,06,05,13.80
2008,07,08,06,06,13.80
2008,07,08,06,07,13.80
2008,07,08,06,08,13.90
2008,07,08,06,09,13.90
2008,07,08,06,10,13.90
2008,07,08,06,11,13.90
2008,07,08,06,12,13.90
2008,07,08,06,13,14.00
2008,07,08,06,14,14.00
2008,07,08,06,15,14.00
2008,07,08,06,16,14.10
2008,07,08,06,17,14.10
2008,07,08,06,18,14.20
2008,07,08,06,19,14.20
2008,07,08,06,20,14.20
2008,07,08,06,21,14.20
2008,07,08,06,22,14.20
2008,07,08,06,23,14.20
2008,07,08,06,24,14.20
2008,07,08,06,25,14.30
2008,07,08,06,26,14.30
2008,07,08,06,27,14.30
2008,07,08,06,28,14.30
2008,07,08,06,29,14.30
2008,07,08,06,30,14.40
2008,07,08,06,31,14.50
2008,07,08,06,32,14.50
2008,07,08,06,33,14.60
2008,07,08,06,34,14.70
2008,07,08,06,35,14.80
2008,07,08,06,36,15.00
2008,07,08,06,37,15.00
2008,07,08,06,38,15.00
2008,07,08,06,39,15.20
2008,07,08,06,40,15.40
2008,07,08,06,41,15.50
2008,07,08,06,42,15.60
2008,07,08,06,43,15.70
2008,07,08,06,44,15.70
2008,07,08,06,45,15.80
2008,07,08,06,46,15.80
2008,07,08,06,47,15.80
2008,07,08,06,48,15.90
2008,07,08,06,49,15.90
2008,07,08,06,50,16.00
2008,07,08,06,51,16.10
2008,07,08,06,52,16.20
2008,07,08,06,53,16.20
2008,07,08,06,54,16.30
2008,07,08,06,55,16.30
2008,07,08,06,56,16.40
2008,07,08,06,57,16.40
2008,07,08,06,58,16.50
2008,07,08,06,59,16.60
2008,07,08,07,00,16.60
2008,07,08,07,01,16.60
2008,07,08,07,02,16.70
2008,07,08,07,03,16.70
2008,07,08,07,04,16.80
2008,07,08,07,05,16.90
2008,07,08,07,06,16.90
2008,07,08,07,07,17.00
2008,07,08,07,08,17.00
2008,07,08,07,09,17.10
2008,07,08,07,10,17.10
2008,07,08,07,11,17.20
2008,07,08,07,12,17.30
2008,07,08,07,13,17.30
2008,07,08,07,14,17.30
2008,07,08,07,15,17.30
2008,07,08,07,16,17.30
2008,07,08,07,17,17.40
2008,07,08,07,18,17.40
2008,07,08,07,19,17.50
2008,07,08,07,20,17.50
2008,07,08,07,21,17.60
2008,07,08,07,22,17.60
2008,07,08,07,23,17.60
2008,07,08,07,24,17.70
2008,07,08,07,25,17.80
2008,07,08,07,26,17.80
2008,07,08,07,27,17.90
2008,07,08,07,28,18.00
2008,07,08,07,29,18.10
2008,07,08,07,30,18.20
2008,07,08,07,31,18.20
2008,07,08,07,32,18.30
2008,07,08,07,33,18.30
2008,07,08,07,34,18.40
2008,07,08,07,35,18.40
2008,07,08,07,36,18.40
2008,07,08,07,37,18.40
2008,07,08,07,38,18.40
2008,07,08,07,39,18.50
2008,07,08,07,40,18.50
2008,07,08,07,41,18.60
2008,07,08,07,42,18.50
2008,07,08,07,43,18.50
2008,07,08,07,44,18.50
2008,07,08,07,45,18.40
2008,07,08,07,46,18.40
2008,07,08,07,47,18.50
2008,07,08,07,48,18.50
2008,07,08,07,49,18.40
2008,07,08,07,50,18.40
2008,07,08,07,51,18.40
2008,07,08,07,52,18.40
2008,07,08,07,53,18.40
2008,07,08,07,54,18.40
2008,07,08,07,55,18.50
2008,07,08,07,56,18.60
2008,07,08,07,57,18.60
2008,07,08,07,58,18.60
2008,07,08,07,59,18.60
2008,07,08,08,00,18.60
2008,07,08,08,01,18.50
2008,07,08,08,02,18.40
2008,07,08,08,03,18.30
2008,07,08,08,04,18.20
2008,07,08,08,05,18.10
2008,07,08,08,06,18.10
2008,07,08,08,07,18.10
2008,07,08,08,08,18.10
2008,07,08,08,09,18.00
2008,07,08,08,10,17.90
2008,07,08,08,11,17.90
2008,07,08,08,12,17.90
2008,07,08,08,13,17.90
2008,07,08,08,14,17.90
2008,07,08,08,15,17.90
2008,07,08,08,16,17.90
2008,07,08,08,17,18.00
2008,07,08,08,18,18.00
2008,07,08,08,19,18.10
2008,07,08,08,20,18.10
2008,07,08,08,21,18.10
2008,07,08,08,22,18.10
2008,07,08,08,23,18.20
2008,07,08,08,24,18.20
2008,07,08,08,25,18.20
2008,07,08,08,26,18.20
2008,07,08,08,27,18.20
2008,07,08,08,28,18.20
2008,07,08,08,29,18.20
2008,07,08,08,30,18.30
2008,07,08,08,31,18.30
2008,07,08,08,32,18.40
2008,07,08,08,33,18.40
2008,07,08,08,34,18.50
2008,07,08,08,35,18.60
2008,07,08,08,36,18.70
2008,07,08,08,37,18.80
2008,07,08,08,38,18.80
2008,07,08,08,39,18.80
2008,07,08,08,40,18.80
2008,07,08,08,41,18.80
2008,07,08,08,42,18.80
2008,07,08,08,43,18.90
2008,07,08,08,44,19.00
2008,07,08,08,45,19.10
2008,07,08,08,46,19.20
2008,07,08,08,47,19.30
2008,07,08,08,48,19.40
2008,07,08,08,49,19.40
2008,07,08,08,50,19.40
2008,07,08,08,51,19.40
2008,07,08,08,52,19.30
2008,07,08,08,53,19.30
2008,07,08,08,54,19.30
2008,07,08,08,55,19.30
2008,07,08,08,56,19.40
2008,07,08,08,57,19.40
2008,07,08,08,58,19.20
2008,07,08,08,59,19.20
2008,07,08,09,00,19.20
2008,07,08,09,01,19.20
2008,07,08,09,02,19.10
2008,07,08,09,03,19.10
2008,07,08,09,04,19.10
2008,07,08,09,05,19.10
2008,07,08,09,06,19.00
2008,07,08,09,07,18.90
2008,07,08,09,08,18.80
2008,07,08,09,09,18.70
2008,07,08,09,10,18.70
2008,07,08,09,11,18.60
2008,07,08,09,12,18.60
2008,07,08,09,13,18.60
2008,07,08,09,14,18.70
2008,07,08,09,15,18.70
2008,07,08,09,16,18.70
2008,07,08,09,17,18.60
2008,07,08,09,18,18.60
2008,07,08,09,19,18.50
2008,07,08,09,20,18.50
2008,07,08,09,21,18.40
2008,07,08,09,22,18.40
2008,07,08,09,23,18.40
2008,07,08,09,24,18.40
2008,07,08,09,25,18.40
2008,07,08,09,26,18.40
2008,07,08,09,27,18.30
2008,07,08,09,28,18.20
2008,07,08,09,29,18.20
2008,07,08,09,30,18.10
2008,07,08,09,31,18.10
2008,07,08,09,32,18.10
2008,07,08,09,33,18.10
2008,07,08,09,34,18.10
2008,07,08,09,35,18.20
2008,07,08,09,36,18.20
2008,07,08,09,37,18.20
2008,07,08,09,38,18.20
2008,07,08,09,39,18.20
2008,07,08,09,40,18.20
2008,07,08,09,41,18.20
2008,07,08,09,42,18.20
2008,07,08,09,43,18.30
2008,07,08,09,44,18.30
2008,07,08,09,45,18.40
2008,07,08,09,46,18.30
2008,07,08,09,47,18.20
2008,07,08,09,48,18.20
2008,07,08,09,49,18.20
2008,07,08,09,50,18.20
2008,07,08,09,51,18.20
2008,07,08,09,52,18.20
2008,07,08,09,53,18.30
2008,07,08,09,54,18.30
2008,07,08,09,55,18.40
2008,07,08,09,56,18.40
2008,07,08,09,57,18.50
2008,07,08,09,58,18.60
2008,07,08,09,59,18.60
2008,07,08,10,00,18.70
2008,07,08,10,01,18.70
2008,07,08,10,02,18.70
2008,07,08,10,03,18.60
2008,07,08,10,04,18.60
2008,07,08,10,05,18.70
2008,07,08,10,06,18.70
2008,07,08,10,07,18.70
2008,07,08,10,08,18.70
2008,07,08,10,09,18.50
2008,07,08,10,10,18.40
2008,07,08,10,11,18.40
2008,07,08,10,12,18.40
2008,07,08,10,13,18.40
2008,07,08,10,14,18.50
2008,07,08,10,15,18.60
2008,07,08,10,16,18.80
2008,07,08,10,17,18.90
2008,07,08,10,18,18.90
2008,07,08,10,19,18.90
2008,07,08,10,20,18.90
2008,07,08,10,21,19.00
2008,07,08,10,22,18.90
2008,07,08,10,23,18.90
2008,07,08,10,24,19.00
2008,07,08,10,25,19.10
2008,07,08,10,26,19.10
2008,07,08,10,27,19.10
2008,07,08,10,28,18.90
2008,07,08,10,29,18.70
2008,07,08,10,30,18.40
2008,07,08,10,31,18.40
2008,07,08,10,32,18.30
2008,07,08,10,33,18.30
2008,07,08,10,34,18.50
2008,07,08,10,35,18.60
2008,07,08,10,36,18.70
2008,07,08,10,37,18.80
2008,07,08,10,38,19.00
2008,07,08,10,39,19.00
2008,07,08,10,40,19.10
2008,07,08,10,41,19.10
2008,07,08,10,42,19.20
2008,07,08,10,43,19.40
2008,07,08,10,44,19.30
2008,07,08,10,45,19.20
2008,07,08,10,46,19.00
2008,07,08,10,47,18.90
2008,07,08,10,48,18.90
2008,07,08,10,49,18.90
2008,07,08,10,50,19.00
2008,07,08,10,51,19.10
2008,07,08,10,52,19.20
2008,07,08,10,53,19.20
2008,07,08,10,54,19.30
2008,07,08,10,55,19.30
2008,07,08,10,56,19.30
2008,07,08,10,57,19.30
2008,07,08,10,58,19.40
2008,07,08,10,59,19.50
2008,07,08,11,00,19.50
2008,07,08,11,01,19.40
2008,07,08,11,02,19.40
2008,07,08,11,03,19.50
2008,07,08,11,04,19.50
2008,07,08,11,05,19.50
2008,07,08,11,06,19.60
2008,07,08,11,07,19.60
2008,07,08,11,08,19.50
2008,07,08,11,09,19.40
2008,07,08,11,10,19.40
2008,07,08,11,11,19.40
2008,07,08,11,12,19.40
2008,07,08,11,13,19.30
2008,07,08,11,14,19.30
2008,07,08,11,15,19.30
2008,07,08,11,16,19.20
2008,07,08,11,17,19.20
2008,07,08,11,18,19.20
2008,07,08,11,19,19.20
2008,07,08,11,20,19.20
2008,07,08,11,21,19.20
2008,07,08,11,22,19.20
2008,07,08,11,23,19.30
2008,07,08,11,24,19.30
2008,07,08,11,25,19.40
2008,07,08,11,26,19.50
2008,07,08,11,27,19.50
2008,07,08,11,28,19.50
2008,07,08,11,29,19.40
2008,07,08,11,30,19.40
2008,07,08,11,31,19.50
2008,07,08,11,32,19.50
2008,07,08,11,33,19.60
2008,07,08,11,34,19.70
2008,07,08,11,35,19.70
2008,07,08,11,36,19.50
2008,07,08,11,37,19.50
2008,07,08,11,38,19.40
2008,07,08,11,39,19.30
2008,07,08,11,40,19.20
2008,07,08,11,41,19.20
2008,07,08,11,42,19.20
2008,07,08,11,43,19.30
2008,07,08,11,44,19.40
2008,07,08,11,45,19.40
2008,07,08,11,46,19.30
2008,07,08,11,47,19.10
2008,07,08,11,48,19.00
2008,07,08,11,49,18.90
2008,07,08,11,50,18.90
2008,07,08,11,51,18.90
2008,07,08,11,52,18.90
2008,07,08,11,53,19.00
2008,07,08,11,54,19.10
2008,07,08,11,55,19.10
2008,07,08,11,56,19.10
2008,07,08,11,57,19.20
2008,07,08,11,58,19.20
2008,07,08,11,59,19.20
2008,07,08,12,00,19.10
2008,07,08,12,01,19.10
2008,07,08,12,02,19.10
2008,07,08,12,03,19.10
2008,07,08,12,04,19.10
2008,07,08,12,05,19.00
2008,07,08,12,06,19.00
2008,07,08,12,07,19.10
2008,07,08,12,08,19.20
2008,07,08,12,09,19.20
2008,07,08,12,10,19.20
2008,07,08,12,11,19.20
2008,07,08,12,12,19.20
2008,07,08,12,13,19.10
2008,07,08,12,14,19.10
2008,07,08,12,15,19.10
2008,07,08,12,16,19.10
2008,07,08,12,17,19.20
2008,07,08,12,18,19.30
2008,07,08,12,19,19.40
2008,07,08,12,20,19.40
2008,07,08,12,21,19.30
2008,07,08,12,22,19.30
2008,07,08,12,23,19.30
2008,07,08,12,24,19.30
2008,07,08,12,25,19.40
2008,07,08,12,26,19.50
2008,07,08,12,27,19.50
2008,07,08,12,28,19.50
2008,07,08,12,29,19.50
2008,07,08,12,30,19.50
2008,07,08,12,31,19.50
2008,07,08,12,32,19.60
2008,07,08,12,33,19.80
2008,07,08,12,34,19.80
2008,07,08,12,35,19.90
2008,07,08,12,36,19.90
2008,07,08,12,37,19.80
2008,07,08,12,38,19.80
2008,07,08,12,39,19.90
2008,07,08,12,40,20.00
2008,07,08,12,41,19.90
2008,07,08,12,42,19.90
2008,07,08,12,43,19.90
2008,07,08,12,44,19.90
2008,07,08,12,45,19.90
2008,07,08,12,46,20.00
2008,07,08,12,47,20.00
2008,07,08,12,48,20.00
2008,07,08,12,49,20.10
2008,07,08,12,50,20.10
2008,07,08,12,51,20.20
2008,07,08,12,52,20.10
2008,07,08,12,53,20.10
2008,07,08,12,54,20.10
2008,07,08,12,55,20.10
2008,07,08,12,56,20.10
2008,07,08,12,57,20.10
2008,07,08,12,58,20.10
2008,07,08,12,59,20.10
2008,07,08,13,00,20.00
2008,07,08,13,01,20.10
2008,07,08,13,02,20.10
2008,07,08,13,03,20.20
2008,07,08,13,04,20.20
2008,07,08,13,05,20.20
2008,07,08,13,06,20.30
2008,07,08,13,07,20.40
2008,07,08,13,08,20.50
2008,07,08,13,09,20.70
2008,07,08,13,10,20.80
2008,07,08,13,11,20.80
2008,07,08,13,12,20.90
2008,07,08,13,13,20.80
2008,07,08,13,14,20.90
2008,07,08,13,15,21.00
2008,07,08,13,16,20.80
2008,07,08,13,17,20.70
2008,07,08,13,18,20.80
2008,07,08,13,19,20.90
2008,07,08,13,20,21.10
2008,07,08,13,21,21.10
2008,07,08,13,22,21.10
2008,07,08,13,23,21.20
2008,07,08,13,24,21.20
2008,07,08,13,25,21.20
2008,07,08,13,26,21.20
2008,07,08,13,27,21.20
2008,07,08,13,28,21.10
2008,07,08,13,29,21.10
2008,07,08,13,30,21.00
2008,07,08,13,31,21.00
2008,07,08,13,32,21.00
2008,07,08,13,33,21.10
2008,07,08,13,34,21.30
2008,07,08,13,35,21.50
2008,07,08,13,36,21.80
2008,07,08,13,37,22.00
2008,07,08,13,38,22.00
2008,07,08,13,39,22.00
2008,07,08,13,40,22.00
2008,07,08,13,41,22.00
2008,07,08,13,42,22.10
2008,07,08,13,43,22.10
2008,07,08,13,44,22.10
2008,07,08,13,45,22.10
2008,07,08,13,46,22.00
2008,07,08,13,47,21.80
2008,07,08,13,48,21.70
2008,07,08,13,49,21.60
2008,07,08,13,50,21.60
2008,07,08,13,51,21.60
2008,07,08,13,52,21.60
2008,07,08,13,53,21.50
2008,07,08,13,54,21.50
2008,07,08,13,55,21.40
2008,07,08,13,56,21.40
2008,07,08,13,57,21.40
2008,07,08,13,58,21.50
2008,07,08,13,59,21.50
2008,07,08,14,00,21.40
2008,07,08,14,01,21.50
2008,07,08,14,02,21.60
2008,07,08,14,03,21.70
2008,07,08,14,04,21.80
2008,07,08,14,05,21.80
2008,07,08,14,06,21.80
2008,07,08,14,07,21.60
2008,07,08,14,08,21.50
2008,07,08,14,09,21.50
2008,07,08,14,10,21.50
2008,07,08,14,11,21.50
2008,07,08,14,12,21.40
2008,07,08,14,13,21.40
2008,07,08,14,14,21.30
2008,07,08,14,15,21.50
2008,07,08,14,16,21.70
2008,07,08,14,17,21.90
2008,07,08,14,18,22.00
2008,07,08,14,19,22.00
2008,07,08,14,20,21.90
2008,07,08,14,21,22.00
2008,07,08,14,22,22.20
2008,07,08,14,23,22.20
2008,07,08,14,24,22.10
2008,07,08,14,25,22.10
2008,07,08,14,26,22.10
2008,07,08,14,27,22.10
2008,07,08,14,28,22.10
2008,07,08,14,29,22.00
2008,07,08,14,30,22.00
2008,07,08,14,31,22.00
2008,07,08,14,32,22.10
2008,07,08,14,33,22.10
2008,07,08,14,34,22.10
2008,07,08,14,35,22.10
2008,07,08,14,36,22.10
2008,07,08,14,37,22.10
2008,07,08,14,38,22.10
2008,07,08,14,39,22.10
2008,07,08,14,40,22.00
2008,07,08,14,41,22.20
2008,07,08,14,42,22.30
2008,07,08,14,43,22.30
2008,07,08,14,44,22.30
2008,07,08,14,45,22.30
2008,07,08,14,46,22.20
2008,07,08,14,47,22.20
2008,07,08,14,48,22.10
2008,07,08,14,49,22.00
2008,07,08,14,50,22.00
2008,07,08,14,51,22.10
2008,07,08,14,52,22.20
2008,07,08,14,53,22.40
2008,07,08,14,54,22.40
2008,07,08,14,55,22.40
2008,07,08,14,56,22.20
2008,07,08,14,57,22.10
2008,07,08,14,58,22.00
2008,07,08,14,59,22.00
2008,07,08,15,00,22.00
2008,07,08,15,01,22.00
2008,07,08,15,02,22.00
2008,07,08,15,03,22.10
2008,07,08,15,04,22.20
2008,07,08,15,05,22.30
2008,07,08,15,06,22.30
2008,07,08,15,07,22.30
2008,07,08,15,08,22.20
2008,07,08,15,09,22.20
2008,07,08,15,10,22.10
2008,07,08,15,11,22.00
2008,07,08,15,12,22.00
2008,07,08,15,13,22.00
2008,07,08,15,14,22.10
2008,07,08,15,15,22.00
2008,07,08,15,16,21.90
2008,07,08,15,17,21.80
2008,07,08,15,18,21.60
2008,07,08,15,19,21.60
2008,07,08,15,20,21.50
2008,07,08,15,21,21.50
2008,07,08,15,22,21.50
2008,07,08,15,23,21.40
2008,07,08,15,24,21.30
2008,07,08,15,25,21.40
2008,07,08,15,26,21.50
2008,07,08,15,27,21.50
2008,07,08,15,28,21.50
2008,07,08,15,29,21.30
2008,07,08,15,30,21.20
2008,07,08,15,31,21.00
2008,07,08,15,32,20.90
2008,07,08,15,33,20.80
2008,07,08,15,34,20.70
2008,07,08,15,35,20.70
2008,07,08,15,36,20.70
2008,07,08,15,37,20.60
2008,07,08,15,38,20.50
2008,07,08,15,39,20.50
2008,07,08,15,40,20.40
2008,07,08,15,41,20.50
2008,07,08,15,42,20.50
2008,07,08,15,43,20.50
2008,07,08,15,44,20.50
2008,07,08,15,45,20.60
2008,07,08,15,46,20.60
2008,07,08,15,47,20.60
2008,07,08,15,48,20.70
2008,07,08,15,49,20.80
2008,07,08,15,50,20.80
2008,07,08,15,51,20.80
2008,07,08,15,52,20.80
2008,07,08,15,53,20.80
2008,07,08,15,54,20.90
2008,07,08,15,55,20.90
2008,07,08,15,56,21.00
2008,07,08,15,57,21.00
2008,07,08,15,58,20.90
2008,07,08,15,59,21.00
2008,07,08,16,00,21.00
2008,07,08,16,01,21.10
2008,07,08,16,02,21.10
2008,07,08,16,03,21.20
2008,07,08,16,04,21.20
2008,07,08,16,05,21.30
2008,07,08,16,06,21.20
2008,07,08,16,07,21.20
2008,07,08,16,08,21.30
2008,07,08,16,09,21.30
2008,07,08,16,10,21.30
2008,07,08,16,11,21.30
2008,07,08,16,12,21.40
2008,07,08,16,13,21.50
2008,07,08,16,14,21.50
2008,07,08,16,15,21.60
2008,07,08,16,16,21.60
2008,07,08,16,17,21.60
2008,07,08,16,18,21.60
2008,07,08,16,19,21.50
2008,07,08,16,20,21.50
2008,07,08,16,21,21.50
2008,07,08,16,22,21.60
2008,07,08,16,23,21.70
2008,07,08,16,24,21.70
2008,07,08,16,25,21.80
2008,07,08,16,26,21.80
2008,07,08,16,27,21.80
2008,07,08,16,28,21.80
2008,07,08,16,29,21.80
2008,07,08,16,30,21.80
2008,07,08,16,31,21.80
2008,07,08,16,32,21.80
2008,07,08,16,33,21.80
2008,07,08,16,34,21.80
2008,07,08,16,35,21.70
2008,07,08,16,36,21.70
2008,07,08,16,37,21.60
2008,07,08,16,38,21.50
2008,07,08,16,39,21.50
2008,07,08,16,40,21.40
2008,07,08,16,41,21.30
2008,07,08,16,42,21.20
2008,07,08,16,43,21.20
2008,07,08,16,44,21.20
2008,07,08,16,45,21.10
2008,07,08,16,46,21.10
2008,07,08,16,47,21.10
2008,07,08,16,48,21.10
2008,07,08,16,49,21.10
2008,07,08,16,50,21.10
2008,07,08,16,51,21.20
2008,07,08,16,52,21.20
2008,07,08,16,53,21.20
2008,07,08,16,54,21.20
2008,07,08,16,55,21.20
2008,07,08,16,56,21.20
2008,07,08,16,57,21.20
2008,07,08,16,58,21.20
2008,07,08,16,59,21.30
2008,07,08,17,00,21.40
2008,07,08,17,01,21.50
2008,07,08,17,02,21.60
2008,07,08,17,03,21.70
2008,07,08,17,04,21.80
2008,07,08,17,05,21.80
2008,07,08,17,06,21.90
2008,07,08,17,07,22.00
2008,07,08,17,08,22.00
2008,07,08,17,09,22.00
2008,07,08,17,10,21.90
2008,07,08,17,11,21.90
2008,07,08,17,12,21.90
2008,07,08,17,13,22.00
2008,07,08,17,14,22.00
2008,07,08,17,15,22.00
2008,07,08,17,16,22.00
2008,07,08,17,17,22.00
2008,07,08,17,18,22.00
2008,07,08,17,19,22.00